When you browse on this site, cookies collect data to enhance your experience and personalize the content and advertising you see.
Visit our Privacy Policy to learn more. By continuing to use the site, you agree to this use of cookies and data.
  • En España
  • Lista de países
  • Para 7 días
  • Temperatura del agua
  • El tiempo en el mapa
  • Informadores
  • user-avatar
    Iniciar sesión

    Tiempo cada hora Brasília

    Hoy, 6 Abril, Lunes

    Tiempo Temperatura Precipitaciones Viento Presión Humedad
    00:00 +22°C° 0.1 mm 1 mps 666 mmHg 88%
    01:00 +22°C° 0.3 mm 1 mps 666 mmHg 88%
    02:00 +22°C° 0.3 mm 1 mps 666 mmHg 89%
    03:00 +22°C° 0 mm 1 mps 666 mmHg 88%
    04:00 +22°C° 0.1 mm 1 mps 666 mmHg 89%
    05:00 +21°C° 0.1 mm 1 mps 666 mmHg 89%
    06:00 +21°C° 0.1 mm 1 mps 666 mmHg 89%
    07:00 +23°C° 0.1 mm 1 mps 667 mmHg 86%
    08:00 +24°C° 0.1 mm 1 mps 668 mmHg 82%
    09:00 +25°C° 0.1 mm 2 mps 669 mmHg 79%
    10:00 +26°C° 0.4 mm 2 mps 668 mmHg 74%
    11:00 +27°C° 0.4 mm 2 mps 668 mmHg 70%
    12:00 +29°C° 0.4 mm 2 mps 668 mmHg 66%
    13:00 +29°C° 0.7 mm 2 mps 667 mmHg 66%
    14:00 +29°C° 0.7 mm 2 mps 667 mmHg 66%
    15:00 +29°C° 0.7 mm 2 mps 666 mmHg 65%
    16:00 +28°C° 1.9 mm 1 mps 666 mmHg 71%
    17:00 +26°C° 1.9 mm 1 mps 665 mmHg 77%
    18:00 +25°C° 1.9 mm 1 mps 665 mmHg 83%
    19:00 +24°C° 1 mm 1 mps 665 mmHg 84%
    20:00 +22°C° 1 mm 0 mps 665 mmHg 85%
    21:00 +21°C° 1 mm 0 mps 666 mmHg 87%
    22:00 +21°C° 1 mm 0 mps 666 mmHg 88%
    23:00 +22°C° 1 mm 1 mps 666 mmHg 89%

    Mañana, 7 Abril, Martes

    Tiempo Temperatura Precipitaciones Viento Presión Humedad
    00:00 +22°C° 1 mm 1 mps 666 mmHg 91%
    01:00 +22°C° 1.6 mm 1 mps 665 mmHg 91%
    02:00 +20°C° 1.6 mm 0 mps 665 mmHg 90%
    03:00 +20°C° 1.6 mm 0 mps 665 mmHg 90%
    04:00 +20°C° 0.3 mm 0 mps 665 mmHg 91%
    05:00 +20°C° 0.3 mm 0 mps 665 mmHg 91%
    06:00 +21°C° 0.3 mm 1 mps 665 mmHg 92%
    07:00 +23°C° 1.3 mm 1 mps 666 mmHg 89%
    08:00 +24°C° 1.3 mm 1 mps 667 mmHg 86%
    09:00 +25°C° 1.3 mm 1 mps 668 mmHg 83%
    10:00 +26°C° 1.2 mm 1 mps 667 mmHg 79%
    11:00 +27°C° 1.2 mm 2 mps 667 mmHg 75%
    12:00 +28°C° 1.2 mm 2 mps 667 mmHg 71%
    13:00 +28°C° 2.1 mm 1 mps 666 mmHg 74%
    14:00 +27°C° 2.1 mm 1 mps 666 mmHg 77%
    15:00 +26°C° 2.1 mm 1 mps 665 mmHg 80%
    16:00 +25°C° 1.2 mm 1 mps 665 mmHg 83%
    17:00 +24°C° 1.2 mm 1 mps 665 mmHg 86%
    18:00 +23°C° 1.2 mm 1 mps 664 mmHg 89%
    19:00 +23°C° 0.1 mm 1 mps 665 mmHg 88%
    20:00 +21°C° 0.1 mm 0 mps 665 mmHg 87%
    21:00 +21°C° 0.1 mm 0 mps 665 mmHg 87%
    22:00 +20°C° 0 mm 0 mps 665 mmHg 87%
    23:00 +20°C° 0 mm 0 mps 665 mmHg 87%

    Pasado mañana, 8 Abril, Miércoles

    Tiempo Temperatura Precipitaciones Viento Presión Humedad
    00:00 +20°C° 0 mm 0 mps 665 mmHg 87%
    01:00 +20°C° 0 mm 0 mps 665 mmHg 87%
    02:00 +20°C° 0 mm 0 mps 665 mmHg 87%
    03:00 +20°C° 0 mm 0 mps 664 mmHg 88%
    04:00 +20°C° 0 mm 0 mps 664 mmHg 88%
    05:00 +20°C° 0 mm 0 mps 665 mmHg 88%
    06:00 +19°C° 0 mm 0 mps 665 mmHg 88%
    07:00 +21°C° 0 mm 0 mps 665 mmHg 85%
    08:00 +22°C° 0 mm 0 mps 666 mmHg 82%
    09:00 +23°C° 0 mm 0 mps 667 mmHg 78%
    10:00 +25°C° 0.1 mm 0 mps 667 mmHg 73%
    11:00 +26°C° 0.1 mm 0 mps 667 mmHg 67%
    12:00 +30°C° 0.1 mm 1 mps 666 mmHg 61%
    13:00 +29°C° 1.1 mm 1 mps 666 mmHg 63%
    14:00 +29°C° 1.1 mm 1 mps 665 mmHg 65%
    15:00 +29°C° 1.1 mm 1 mps 664 mmHg 67%
    16:00 +27°C° 2.5 mm 1 mps 664 mmHg 73%
    17:00 +26°C° 2.5 mm 1 mps 664 mmHg 79%
    18:00 +24°C° 2.5 mm 1 mps 663 mmHg 84%
    19:00 +24°C° 2.5 mm 1 mps 664 mmHg 85%
    20:00 +23°C° 2.5 mm 1 mps 664 mmHg 86%
    21:00 +23°C° 2.5 mm 1 mps 664 mmHg 87%
    22:00 +22°C° 0.8 mm 1 mps 664 mmHg 88%
    23:00 +22°C° 0.8 mm 1 mps 664 mmHg 89%

    9 Abril, Jueves

    Tiempo Temperatura Precipitaciones Viento Presión Humedad
    00:00 +22°C° 0.8 mm 1 mps 664 mmHg 89%
    01:00 +22°C° 1.2 mm 1 mps 664 mmHg 91%
    02:00 +21°C° 1.2 mm 1 mps 664 mmHg 92%
    03:00 +21°C° 1.2 mm 1 mps 663 mmHg 93%
    04:00 +21°C° 0.3 mm 1 mps 663 mmHg 93%
    05:00 +21°C° 0.3 mm 1 mps 663 mmHg 94%
    06:00 +20°C° 0.3 mm 1 mps 663 mmHg 94%
    07:00 +20°C° 0.2 mm 0 mps 664 mmHg 91%
    08:00 +21°C° 0.2 mm 0 mps 665 mmHg 87%
    09:00 +23°C° 0.2 mm 0 mps 666 mmHg 84%
    10:00 +25°C° 1.1 mm 1 mps 665 mmHg 80%
    11:00 +26°C° 1.1 mm 2 mps 665 mmHg 76%
    12:00 +27°C° 1.1 mm 2 mps 665 mmHg 72%
    13:00 +27°C° 1.3 mm 2 mps 665 mmHg 73%
    14:00 +27°C° 1.3 mm 3 mps 664 mmHg 75%
    15:00 +26°C° 1.3 mm 3 mps 663 mmHg 76%
    16:00 +25°C° 1.4 mm 2 mps 663 mmHg 79%
    17:00 +24°C° 1.4 mm 2 mps 663 mmHg 82%
    18:00 +23°C° 1.4 mm 1 mps 663 mmHg 85%
    19:00 +23°C° 1.1 mm 1 mps 663 mmHg 85%
    20:00 +22°C° 1.1 mm 1 mps 664 mmHg 86%
    21:00 +22°C° 1.1 mm 1 mps 664 mmHg 87%
    22:00 +22°C° 0.8 mm 1 mps 664 mmHg 88%
    23:00 +21°C° 0.8 mm 1 mps 664 mmHg 89%

    10 Abril, Viernes

    Tiempo Temperatura Precipitaciones Viento Presión Humedad
    00:00 +21°C° 0.8 mm 1 mps 664 mmHg 90%
    01:00 +21°C° 0.2 mm 1 mps 664 mmHg 91%
    02:00 +21°C° 0.2 mm 1 mps 663 mmHg 91%
    03:00 +20°C° 0.2 mm 1 mps 663 mmHg 92%
    04:00 +20°C° 0 mm 1 mps 663 mmHg 92%
    05:00 +20°C° 0 mm 1 mps 663 mmHg 92%
    06:00 +20°C° 0 mm 1 mps 664 mmHg 92%
    07:00 +21°C° 0 mm 1 mps 664 mmHg 91%
    08:00 +22°C° 0 mm 1 mps 665 mmHg 89%
    09:00 +23°C° 0 mm 1 mps 665 mmHg 88%
    10:00 +24°C° 0 mm 1 mps 665 mmHg 84%
    11:00 +24°C° 0 mm 2 mps 665 mmHg 81%
    12:00 +25°C° 0 mm 2 mps 665 mmHg 77%
    13:00 +26°C° 0.1 mm 2 mps 665 mmHg 75%
    14:00 +26°C° 0.1 mm 3 mps 664 mmHg 73%
    15:00 +27°C° 0.1 mm 3 mps 664 mmHg 71%
    16:00 +25°C° 0.1 mm 2 mps 663 mmHg 77%
    17:00 +24°C° 0.1 mm 2 mps 663 mmHg 82%
    18:00 +23°C° 0.1 mm 1 mps 663 mmHg 87%
    19:00 +23°C° 0.1 mm 1 mps 663 mmHg 89%
    20:00 +22°C° 0.1 mm 1 mps 663 mmHg 90%
    21:00 +22°C° 0.1 mm 1 mps 664 mmHg 91%
    22:00 +21°C° 0.1 mm 1 mps 664 mmHg 92%
    23:00 +21°C° 0.1 mm 1 mps 664 mmHg 92%

    11 Abril, Sábado

    Tiempo Temperatura Precipitaciones Viento Presión Humedad
    00:00 +21°C° 0.1 mm 1 mps 664 mmHg 93%
    01:00 +20°C° 0.1 mm 1 mps 664 mmHg 93%
    02:00 +20°C° 0.1 mm 1 mps 664 mmHg 94%
    03:00 +20°C° 0.1 mm 1 mps 663 mmHg 94%
    04:00 +20°C° 0 mm 1 mps 663 mmHg 94%
    05:00 +18°C° 0 mm 0 mps 664 mmHg 94%
    06:00 +18°C° 0 mm 0 mps 664 mmHg 94%
    07:00 +19°C° 0 mm 0 mps 664 mmHg 90%
    08:00 +21°C° 0 mm 0 mps 665 mmHg 86%
    09:00 +22°C° 0 mm 0 mps 666 mmHg 81%
    10:00 +23°C° 0.2 mm 0 mps 666 mmHg 77%
    11:00 +26°C° 0.2 mm 1 mps 666 mmHg 73%
    12:00 +27°C° 0.2 mm 1 mps 666 mmHg 69%
    13:00 +27°C° 0.7 mm 1 mps 665 mmHg 71%
    14:00 +27°C° 0.7 mm 2 mps 665 mmHg 72%
    15:00 +26°C° 0.7 mm 2 mps 664 mmHg 74%
    16:00 +25°C° 0.9 mm 1 mps 664 mmHg 78%
    17:00 +24°C° 0.9 mm 1 mps 664 mmHg 83%
    18:00 +23°C° 0.9 mm 1 mps 664 mmHg 87%
    19:00 +22°C° 0.9 mm 1 mps 664 mmHg 88%
    20:00 +20°C° 0.9 mm 0 mps 664 mmHg 89%
    21:00 +19°C° 0.9 mm 0 mps 664 mmHg 90%
    22:00 +19°C° 0.4 mm 0 mps 664 mmHg 90%
    23:00 +21°C° 0.4 mm 1 mps 665 mmHg 90%
    Mostrar más